Theta_e
305 305 306 306 306 307 307 306 304 303 302 302 302 302 302 302 303 297 292 294 291 288 288 290 290 286 285 284 280 284 283 284 283 280 284 285 285 287 285 288 286 284 283 282 283 281 278 294 293 286 289 294 296 296
305 305 305 305 306 306 307 306 304 303 302 302 302 302 302 302 302 302 292 294 295 291 286 291 292 293 292 291 286 284 283 288 290 280 285 286 281 282 284 280 292 283 287 286 286 284 290 293 293 296 297 297 298 297
306 305 305 305 305 306 307 305 304 303 302 301 302 302 302 302 302 301 296 293 292 289 286 285 286 292 294 294 295 285 285 290 289 291 287 286 283 289 279 280 284 290 292 285 285 289 291 295 297 299 301 300 299 298
305 305 305 305 305 306 306 305 304 303 302 301 301 302 302 302 302 301 294 292 294 289 283 284 293 292 295 294 292 293 291 294 291 292 291 289 286 288 284 285 284 288 289 286 286 291 293 295 297 298 298 298 297 297
304 305 305 305 305 306 306 305 303 302 302 301 301 302 302 302 301 299 293 292 296 287 284 285 290 292 294 293 292 294 293 292 290 291 290 288 289 289 287 287 285 289 287 286 285 292 293 295 298 298 295 294 294 294
304 304 305 305 305 306 306 304 303 302 301 302 302 302 302 302 302 292 287 296 296 296 288 284 288 291 293 295 295 294 293 292 292 292 292 293 295 291 286 284 289 291 293 295 292 299 300 300 300 295 293 293 297 296
304 304 305 305 305 306 305 304 302 301 301 301 301 301 302 302 296 289 287 293 300 298 291 285 281 289 292 295 297 297 296 295 296 294 292 292 292 293 288 285 290 292 296 298 302 301 296 296 293 296 295 297 297 297
304 304 304 305 305 306 305 303 301 301 301 301 301 302 302 302 300 295 295 301 301 291 292 282 281 285 291 289 289 295 294 296 296 294 294 291 292 291 285 291 294 297 298 299 301 299 298 297 297 296 296 297 296 294
304 304 304 304 305 305 303 301 300 300 300 301 301 303 297 293 289 297 306 303 300 293 287 285 283 281 291 288 289 293 297 290 296 291 291 292 290 285 288 292 294 297 297 297 299 300 297 296 295 296 296 297 294 293
304 304 304 305 305 304 302 300 299 300 300 300 296 293 290 296 300 300 297 294 290 290 292 285 287 284 288 288 288 288 290 289 287 290 294 288 286 291 293 293 294 296 299 299 296 293 294 293 293 293 294 294 294 291
304 304 304 305 305 303 301 299 299 299 296 289 286 285 288 296 291 288 285 288 289 287 289 289 288 286 290 288 285 292 284 290 286 290 289 286 285 289 292 293 295 299 299 298 297 295 294 294 292 293 292 293 292 291
304 304 304 305 305 302 300 299 298 293 291 290 289 291 289 289 288 285 283 288 288 286 290 287 286 289 288 291 291 289 288 290 286 293 286 282 287 291 291 294 298 301 297 297 296 295 295 294 294 294 293 292 291 292
304 304 304 305 303 301 299 298 298 298 296 295 291 288 285 285 279 283 280 280 281 286 287 286 284 284 286 290 284 288 285 285 293 284 283 286 289 290 291 293 297 302 298 298 295 295 295 294 295 294 293 293 293 292
304 304 305 304 302 300 299 298 298 295 293 290 288 276 282 282 285 282 281 281 284 286 283 282 281 281 283 284 287 283 288 289 279 275 279 286 289 289 292 294 294 297 302 297 295 295 294 293 293 294 293 293 293 291
304 304 304 303 300 299 298 298 298 294 292 289 287 276 282 286 285 285 284 284 285 284 282 281 281 283 284 282 286 285 281 276 277 279 283 288 289 290 291 292 291 296 301 298 294 295 294 293 293 293 294 294 293 293
304 303 300 300 300 298 298 297 295 294 292 290 287 283 283 283 282 282 283 284 286 285 284 283 283 283 284 285 281 279 271 275 278 283 287 289 288 289 289 290 291 295 298 297 294 295 294 293 293 294 295 294 294 293
300 295 299 299 298 298 298 294 294 291 289 287 284 286 284 283 283 283 284 286 288 284 281 282 281 279 283 277 279 280 273 280 285 287 289 287 287 288 288 289 290 293 296 299 295 295 294 294 293 292 292 293 294 294
293 296 299 298 297 294 293 293 292 289 285 285 282 283 285 284 285 286 287 288 286 285 283 282 283 279 278 273 272 283 285 287 288 289 286 287 287 287 288 288 290 292 294 299 300 296 294 292 291 291 292 294 294 294
296 297 298 299 295 293 291 291 292 286 286 286 286 285 287 287 287 288 287 287 288 287 285 282 279 275 280 284 283 284 286 287 285 284 285 287 287 287 288 289 290 291 292 297 301 295 294 293 291 292 292 293 292 293
299 297 298 299 296 291 290 290 294 286 284 286 285 284 287 286 286 285 285 285 284 282 282 281 279 281 284 285 288 287 285 284 282 282 284 286 288 288 288 288 288 291 293 299 302 292 292 292 293 293 294 292 292 291
296 296 297 294 291 291 290 289 287 287 286 284 286 286 286 286 284 284 283 284 282 280 280 282 281 286 288 289 285 284 283 286 285 284 284 284 287 288 287 288 290 293 294 296 296 297 292 291 291 292 293 293 292 291
293 296 291 292 290 291 288 290 287 288 285 285 285 287 285 283 283 283 284 281 280 278 281 281 286 287 286 284 286 288 288 287 287 287 287 288 287 287 287 289 290 289 292 293 293 293 296 292 291 291 291 291 291 289
295 294 292 291 287 287 284 290 285 286 283 284 285 284 285 284 285 286 279 281 280 283 283 283 287 288 287 288 287 288 286 283 283 285 286 287 288 289 289 288 289 289 289 290 291 294 295 289 289 290 290 290 289 288
296 290 287 286 285 282 288 285 287 286 285 282 283 283 285 284 286 282 278 277 279 281 281 283 286 284 284 283 284 286 283 282 281 285 286 287 287 287 289 288 289 289 290 289 290 292 295 292 291 290 289 289 288 287
284 283 284 280 286 284 283 284 285 283 282 283 284 283 285 287 281 280 279 276 278 279 280 282 281 281 285 281 282 286 283 280 279 279 284 287 287 287 287 287 288 289 290 288 288 289 292 295 294 291 290 289 287 286
277 282 281 283 284 283 284 282 283 283 283 283 284 286 286 282 279 279 278 277 277 278 279 281 280 280 281 282 281 280 280 281 279 278 280 283 286 285 284 283 284 285 289 288 288 289 290 293 294 292 290 288 286 287
277 279 284 289 287 287 284 286 286 283 283 282 283 284 282 278 279 279 281 281 280 282 284 283 282 281 282 282 283 282 281 281 279 279 281 282 284 285 284 282 282 285 288 288 289 289 289 290 292 294 291 289 289 288
283 284 281 283 284 285 283 284 284 283 283 286 286 283 280 279 278 282 282 284 285 284 283 283 284 285 283 283 282 280 279 280 280 280 280 281 282 283 283 284 285 284 287 288 288 288 289 289 291 292 294 290 288 288
283 285 285 282 284 284 285 285 284 286 288 287 283 281 280 282 283 282 283 284 284 282 280 280 281 282 282 281 282 280 275 275 277 276 276 276 277 279 282 282 283 284 285 286 286 285 287 287 288 290 292 293 291 290
282 286 283 284 283 283 285 287 286 286 286 285 285 283 280 280 282 284 283 281 280 279 279 280 280 280 279 275 274 279 278 274 271 271 271 273 276 279 279 280 281 282 284 285 284 285 285 286 288 290 290 292 291 288
286 285 284 285 285 286 286 287 287 286 285 283 284 280 279 280 283 284 282 280 280 280 280 279 279 280 279 278 276 274 275 277 277 277 277 276 276 277 279 279 279 281 283 282 282 282 283 284 285 287 291 295 290 287
285 284 284 283 283 287 288 286 284 282 282 281 279 280 279 279 277 278 282 281 280 279 278 279 279 278 279 279 279 278 277 274 276 277 278 278 278 279 278 278 278 280 281 280 281 281 281 282 284 285 289 294 290 289
284 286 286 286 284 286 287 286 284 282 281 280 280 280 279 275 276 278 284 284 280 279 278 279 280 280 280 281 280 279 278 278 278 277 277 277 277 277 277 277 278 279 279 278 278 279 280 281 287 289 291 295 291 289
Wind_Speed
13 13 12 11 11 11 12 8 9 9 10 11 12 12 12 12 13 4 4 3 2 3 10 7 4 5 1 3 4 4 6 4 4 4 2 2 3 3 4 3 3 5 4 4 4 5 8 4 4 6 9 7 8 14
14 13 12 12 11 11 11 8 9 9 9 11 11 12 11 12 12 11 3 2 2 4 9 2 11 15 15 13 6 2 4 3 3 3 3 3 3 4 3 4 2 3 4 2 7 6 7 7 8 11 12 15 17 13
15 14 13 12 11 11 10 9 10 10 10 10 12 12 12 11 12 7 4 2 1 3 6 3 4 5 5 14 10 6 4 6 4 5 3 3 5 2 2 4 3 4 1 3 6 4 8 8 8 9 9 15 16 11
16 15 14 13 12 11 11 10 10 11 11 10 11 12 12 12 12 11 2 2 2 3 4 8 4 9 5 6 9 14 4 1 3 2 2 3 3 5 4 5 6 8 6 4 6 9 10 10 11 11 8 6 7 9
16 16 14 13 12 11 11 10 10 11 12 12 12 13 12 13 13 6 3 4 5 3 4 7 13 5 5 6 9 13 13 5 3 2 3 3 3 2 3 2 4 3 6 3 7 11 12 17 15 5 7 10 10 11
16 16 14 13 12 12 11 10 11 12 13 13 13 14 13 12 10 2 3 1 3 3 3 5 5 7 9 10 1 6 6 2 2 3 3 3 5 2 3 4 7 7 5 6 9 10 15 18 10 1 5 7 12 14
17 16 15 14 13 12 11 11 11 13 14 15 15 15 14 11 1 2 3 2 8 2 3 5 6 6 6 5 3 2 4 3 3 3 4 3 3 5 3 4 7 11 13 13 18 12 10 2 4 5 6 10 14 14
17 16 14 13 13 12 11 10 11 13 15 16 17 17 15 9 4 4 4 8 7 3 0 2 6 6 4 4 4 1 1 2 3 2 1 2 1 2 4 8 15 16 17 16 12 7 6 6 7 8 9 10 12 12
17 15 14 13 13 11 11 9 10 12 16 17 19 5 4 3 2 3 2 6 1 2 1 1 3 5 5 4 2 3 1 2 1 3 3 2 1 2 10 16 21 18 13 16 16 10 6 7 11 11 12 10 11 11
18 15 13 13 12 11 10 7 9 13 16 12 2 1 1 1 9 2 2 1 2 1 0 2 2 5 2 3 4 3 2 2 2 2 3 1 2 6 14 19 17 17 16 10 6 7 7 11 11 12 13 11 9 11
19 16 13 13 13 12 9 6 7 11 4 3 2 0 3 9 2 1 1 2 2 2 2 3 4 5 2 3 4 2 3 2 3 2 2 3 4 16 23 24 21 18 12 5 2 3 6 7 10 11 13 12 9 10
19 18 16 15 14 12 9 5 3 2 1 2 2 1 2 2 1 1 3 2 4 2 3 4 5 6 4 3 3 3 3 2 2 4 3 3 6 19 21 25 24 15 6 3 5 6 8 9 10 10 11 12 11 10
20 18 16 15 15 13 9 7 4 2 1 1 1 2 3 1 1 3 0 2 2 2 4 3 5 3 3 1 2 2 3 3 3 4 2 3 12 18 20 20 22 18 6 5 6 7 8 9 10 11 12 11 11 11
21 18 17 16 15 12 10 7 4 3 1 2 2 2 4 3 4 2 4 4 5 3 5 3 3 1 2 3 1 2 3 2 4 5 4 8 16 19 19 18 18 19 13 5 7 9 9 9 10 11 12 12 11 11
21 20 18 16 15 12 9 7 6 1 2 3 3 3 5 2 1 2 1 0 3 3 2 3 2 1 3 3 3 3 4 4 2 4 5 10 16 17 19 20 21 18 15 6 3 6 8 9 9 10 12 12 12 11
21 16 8 16 15 11 8 6 3 2 2 3 4 2 1 2 2 0 0 2 2 4 1 2 3 4 4 3 4 6 4 3 4 6 8 11 15 17 18 19 19 18 17 7 2 3 4 6 7 8 9 11 11 12
16 3 16 17 15 11 11 3 3 4 3 3 4 2 2 2 3 2 2 3 1 2 1 2 4 1 2 3 3 3 1 4 8 9 6 11 15 15 18 18 18 18 16 11 3 2 3 4 4 6 10 10 11 12
3 8 21 20 13 7 2 3 3 4 5 4 2 2 2 2 3 1 2 2 1 1 2 2 3 5 3 2 2 1 3 6 6 7 7 10 12 14 14 17 17 16 15 12 6 3 1 4 4 3 5 8 9 11
10 13 23 21 7 4 5 4 3 3 5 3 2 2 3 3 1 2 1 2 2 2 4 3 5 2 2 2 2 5 6 5 7 8 8 9 12 15 17 16 15 14 15 14 11 3 3 3 2 1 2 3 5 6
22 23 19 18 6 2 4 3 3 3 3 4 2 3 4 4 3 2 3 4 3 3 5 3 2 2 0 1 2 4 3 4 5 9 9 8 8 12 13 12 10 14 12 14 9 4 2 1 1 1 1 1 3 4
11 9 11 6 2 2 2 1 2 4 2 2 2 4 3 3 3 2 2 2 4 2 2 2 2 2 1 1 1 2 4 6 7 6 9 10 10 9 9 9 11 9 9 8 9 6 5 3 3 1 3 4 4 6
5 11 3 2 2 3 3 3 3 1 3 2 3 3 4 3 3 2 3 4 2 2 3 3 2 1 1 1 1 3 5 8 8 7 10 11 7 8 9 9 10 10 9 9 9 8 5 1 1 2 4 4 5 5
9 3 3 3 4 4 5 2 3 3 3 3 3 4 3 3 3 4 3 2 2 2 3 2 1 0 2 2 2 5 5 6 6 7 8 7 7 7 8 8 8 9 9 10 10 9 6 0 2 4 4 4 5 5
3 4 4 5 5 5 3 3 3 2 2 2 4 5 4 4 3 3 2 2 2 2 2 2 3 2 2 3 2 3 4 3 4 6 7 8 7 8 8 7 7 7 8 9 9 9 8 4 1 4 4 6 5 5
4 6 5 5 4 4 5 4 4 3 4 4 4 3 4 4 3 2 5 3 3 3 3 3 3 1 2 1 2 2 4 2 3 5 6 6 7 7 7 7 7 6 7 9 10 10 10 8 4 3 5 6 8 7
4 5 7 6 4 4 5 5 6 5 4 4 4 4 3 4 3 4 3 5 4 4 4 4 4 2 1 1 1 2 4 4 3 3 4 5 6 8 9 10 10 8 8 9 9 10 11 9 8 3 3 6 9 10
4 5 3 3 2 2 2 2 2 4 5 4 4 4 4 4 3 3 2 2 3 3 4 4 4 4 3 2 1 1 3 4 2 4 6 5 4 4 5 9 11 8 10 11 9 10 11 10 9 8 3 3 7 10
3 1 5 4 3 2 1 3 4 5 4 3 5 3 7 4 3 4 4 3 4 4 3 2 4 4 4 2 3 2 2 4 5 5 4 3 3 4 6 8 9 14 9 9 9 9 9 8 8 8 7 6 5 7
3 1 2 2 3 3 5 4 4 3 3 4 5 3 3 2 2 3 2 4 4 5 4 4 3 3 4 3 3 2 2 3 7 11 13 9 9 6 9 9 9 9 9 9 11 9 11 10 9 8 9 5 5 7
3 3 3 4 5 5 3 2 3 3 4 4 6 4 5 4 4 3 6 4 5 5 4 4 3 4 3 3 1 2 3 2 3 3 2 5 7 9 10 10 10 10 10 10 11 12 12 8 7 5 6 7 8 10
2 5 4 4 4 3 5 9 9 6 4 6 7 8 6 5 3 5 4 3 5 4 5 5 5 3 4 4 2 3 2 4 4 4 3 4 5 6 9 9 9 9 9 11 11 10 11 10 8 9 8 9 15 14
4 5 4 5 3 6 5 4 4 4 3 3 3 3 3 4 4 1 1 2 5 5 3 4 4 2 2 3 4 4 4 1 3 4 6 6 5 6 8 8 8 9 10 11 11 11 14 14 11 12 11 11 19 19
4 3 4 2 4 4 2 5 4 4 3 3 3 3 3 4 4 3 1 2 4 4 3 3 3 3 5 6 5 4 4 3 5 6 7 7 8 7 6 8 8 9 11 10 12 13 15 18 7 11 10 11 18 19
Wind_Direction
233 239 248 254 260 270 284 285 299 310 315 319 327 331 341 338 331 16 271 204 98 269 280 245 234 195 215 169 190 287 0 341 352 17 262 311 290 349 304 312 291 196 187 209 200 221 264 136 81 189 232 274 285 285
231 237 239 244 252 258 273 277 286 293 302 310 317 321 330 331 325 333 264 248 160 217 255 232 254 250 241 218 155 228 221 330 286 41 3 339 318 314 307 293 278 269 192 215 209 220 233 207 227 255 272 274 293 282
232 235 236 238 245 252 257 264 277 286 293 303 311 314 319 321 317 312 286 264 279 285 292 342 242 273 215 227 215 175 260 205 241 182 168 246 264 279 288 266 316 299 322 260 354 273 264 264 272 288 282 274 278 286
231 235 235 237 239 245 252 259 272 285 290 296 303 306 312 315 313 310 241 218 230 280 293 284 314 307 242 256 178 209 232 351 150 142 199 250 244 185 247 249 253 254 319 253 258 278 305 274 307 292 296 308 314 319
232 233 231 236 239 241 244 255 269 281 288 296 302 304 311 314 315 310 230 225 208 151 298 291 309 257 271 251 211 207 213 188 167 161 211 223 244 299 262 254 246 207 222 222 274 303 269 279 286 303 311 318 310 304
228 231 229 232 235 240 241 252 266 279 287 295 301 305 306 311 329 33 1 97 186 163 290 299 277 291 308 330 197 140 177 199 185 168 210 216 209 211 271 265 255 249 263 257 278 276 281 278 291 221 278 304 304 308
224 225 226 230 233 235 237 247 266 280 289 296 301 300 296 296 153 177 197 207 161 101 254 296 315 288 303 304 355 77 141 197 189 209 229 222 215 197 247 267 306 315 304 315 311 290 290 252 272 290 279 283 303 306
217 221 220 224 230 230 233 248 269 283 294 300 303 299 289 266 253 266 257 244 192 194 204 308 280 325 352 304 317 353 193 190 205 249 256 234 208 187 265 268 294 299 301 294 278 325 275 305 300 284 274 275 296 318
210 212 214 218 225 222 230 248 274 292 299 308 310 323 82 98 156 233 268 106 160 161 231 233 279 293 346 288 283 303 123 248 176 248 238 152 69 58 305 320 314 319 318 285 301 288 330 307 300 309 310 326 332 317
201 197 209 215 219 215 225 247 281 300 309 319 65 95 47 155 334 73 23 255 17 337 113 253 260 278 12 301 301 321 277 237 257 235 110 169 96 259 325 327 320 320 316 325 316 341 325 316 324 323 328 344 326 323
190 181 199 214 215 212 217 237 289 315 5 43 30 228 278 314 78 72 213 235 159 233 216 247 247 279 260 258 276 230 286 267 266 55 303 63 358 341 332 328 317 315 312 12 41 330 313 312 318 328 332 349 347 333
179 174 193 208 204 206 206 216 271 21 111 184 181 286 315 24 67 245 213 184 219 256 209 231 239 211 262 216 269 294 283 295 333 343 38 13 346 338 333 340 331 337 47 29 7 338 332 347 340 345 340 346 347 337
172 173 183 193 197 197 193 209 214 225 78 125 121 19 73 203 68 226 139 339 337 216 238 233 284 233 327 47 345 338 348 341 360 18 25 45 331 337 336 335 344 357 4 1 345 336 353 352 358 6 352 358 0 353
167 165 181 188 192 178 196 196 214 141 160 178 161 335 185 212 229 170 164 198 240 210 276 244 257 181 353 24 351 330 0 338 34 13 5 347 343 336 334 333 341 341 343 345 336 334 355 5 8 13 8 357 1 9
164 162 179 187 175 174 196 193 186 170 194 206 161 223 210 253 238 221 220 282 265 231 299 351 36 90 2 23 21 351 24 37 33 11 309 324 338 331 334 338 332 333 342 329 2 335 351 4 7 17 8 6 16 14
156 156 166 169 163 181 185 173 165 200 223 222 228 256 235 102 299 331 193 308 293 319 54 57 46 52 37 345 36 5 60 9 322 321 308 328 330 329 332 331 328 331 342 337 21 8 360 14 5 13 7 10 16 29
130 145 160 156 161 179 170 165 184 216 228 218 241 207 171 180 201 226 180 257 303 60 27 66 64 261 329 39 57 38 41 297 310 311 329 325 323 328 326 326 325 332 334 338 331 360 14 14 10 14 23 11 17 25
102 142 151 151 144 140 171 212 233 214 230 228 200 227 182 151 139 227 244 306 52 100 74 87 102 48 49 60 335 360 295 300 302 316 317 314 326 324 324 323 322 324 327 326 331 271 359 347 29 13 10 22 23 26
137 141 152 157 155 169 167 182 208 235 216 202 203 186 113 102 17 85 49 8 58 76 89 56 74 78 66 56 316 313 309 326 323 316 307 324 328 328 325 323 321 322 330 329 340 269 210 226 230 249 1 27 35 23
135 144 159 176 178 180 180 212 178 213 221 217 119 142 127 141 137 90 55 37 50 53 51 60 100 130 118 310 313 317 317 321 320 318 321 328 324 328 327 321 317 319 321 332 340 7 17 79 307 322 20 346 14 355
99 136 135 135 199 234 279 260 200 202 207 177 142 127 109 103 104 78 66 30 55 60 95 114 154 137 224 262 56 11 332 333 324 313 311 313 322 319 318 318 321 331 335 335 341 343 12 343 318 327 72 59 55 69
110 142 110 180 219 194 252 231 205 210 137 177 126 119 118 132 143 164 138 62 87 189 150 159 160 132 53 46 2 25 352 339 326 318 319 314 323 329 329 328 333 334 333 348 333 324 311 268 45 61 80 70 61 57
134 125 138 160 203 191 251 145 183 183 152 203 110 125 131 132 160 124 73 117 159 173 160 171 154 172 157 107 352 18 15 340 335 326 319 324 324 327 327 344 338 334 336 345 327 328 326 153 116 99 91 75 78 69
136 157 181 184 185 202 191 199 203 171 148 147 157 151 141 130 157 72 131 193 219 146 148 174 87 69 41 16 348 38 343 336 318 323 326 330 337 340 337 337 333 336 341 332 335 338 343 342 120 112 108 99 84 79
128 197 161 206 194 188 202 167 165 168 180 172 159 124 148 134 106 142 172 208 163 172 166 100 98 121 166 237 289 44 331 353 337 319 319 333 336 328 333 336 336 339 346 342 347 345 342 355 344 139 133 123 118 109
192 205 181 193 168 192 201 162 176 174 150 145 190 130 95 99 115 184 211 170 162 170 168 159 161 142 219 194 93 5 316 316 334 321 295 337 332 337 339 332 334 342 353 338 329 337 339 346 344 284 165 138 127 122
188 207 202 239 231 241 224 174 139 138 172 180 155 129 115 128 168 195 145 167 142 168 160 165 163 173 173 168 124 66 343 350 335 262 280 292 312 329 3 330 324 322 328 321 326 333 327 325 329 327 204 169 162 148
232 240 192 175 200 222 245 179 157 171 178 159 112 116 147 152 145 166 176 182 138 130 129 148 186 157 141 149 121 71 359 339 324 315 299 313 335 317 354 327 316 313 311 313 318 316 312 304 300 309 312 198 171 163
210 209 154 245 219 239 215 216 188 169 132 105 104 108 119 84 136 119 122 123 112 112 105 87 53 88 84 76 94 65 61 37 25 15 6 347 341 336 343 329 320 320 318 315 312 301 301 301 294 284 281 293 192 162
197 185 203 226 192 212 238 171 99 77 44 87 104 95 48 33 6 47 92 83 92 104 111 108 109 96 100 79 4 59 14 64 93 121 319 322 313 314 323 326 325 323 316 318 316 312 309 298 285 248 218 219 176 157
184 183 211 249 185 138 112 104 82 72 64 69 71 103 110 126 60 32 53 73 101 100 93 79 63 54 83 57 88 103 19 355 357 344 304 272 286 311 324 324 321 317 320 322 316 312 306 298 282 267 253 217 176 165
190 214 195 191 79 138 125 62 70 87 109 79 98 91 93 88 95 29 348 86 82 82 87 97 84 42 51 94 108 114 130 240 334 338 359 357 336 332 332 328 327 325 332 333 326 320 316 305 262 229 220 221 171 166
197 201 203 141 119 189 51 90 105 103 97 106 104 125 73 113 125 173 142 107 136 146 129 108 103 91 79 92 96 89 81 49 24 13 6 4 356 348 347 346 341 340 342 345 345 339 345 344 325 197 201 188 174 162